Location: Asheville, NC
(35.6000°N, 82.5500°W)
Time: 23:08:13
(UTC-04:00)

BEESAT 3 - Visible Passes

Search period start: 23 April 2018 00:00
Search period end: 03 May 2018 00:00
Orbit: 496 x 522 km, 64.9° (Epoch: 23 April)

Date Brightness Start Highest point End Pass type
(mag) Time Alt. Az. Time Alt. Az. Time Alt. Az.
29 Apr ? 06:09:09 10° SE 06:11:20 15° ESE 06:13:32 10° ENE visible
30 Apr ? 05:51:17 10° SE 05:53:22 14° ESE 05:55:27 10° ENE visible
01 May ? 05:33:24 10° SE 05:35:22 13° ESE 05:37:21 10° ENE visible
02 May ? 05:15:32 10° SE 05:17:24 13° ESE 05:19:14 10° E visible
